+ View the NASA Portal
+ Center for Near-Earth Object Studies
IMPORTANT:
The SSD Announcement email list is now available. Major changes are coming in the near future, including possible hostname and/or URL changes. To be notified of such changes, subscribe to this email list.
Please visit
this page
for more details.
Don't show this message again
JPL Small-Body Database Browser
Search:
[
help
]
379814 (2011 KT11)
Classification:
Main-belt Asteroid
SPK-ID:
2379814
[
Ephemeris
|
Orbit Diagram
|
Orbital Elements
|
Mission Design
|
Physical Parameters
|
Discovery Circumstances
|
Close-Approach Data
]
[ show orbit diagram ]
Orbital Elements at Epoch 2458600.5 (2019-Apr-27.0) TDB
Reference:
JPL 15
(heliocentric ecliptic J2000)
Element
Value
Uncertainty (1-sigma)
Units
e
.1649797251531596
9.067e-08
a
3.137310463593145
1.105e-07
au
q
2.619717845589416
3.1301e-07
au
i
16.40474196521012
1.1592e-05
deg
node
247.9024453894218
5.0139e-05
deg
peri
25.77635278547041
9.1179e-05
deg
M
127.4461845333897
8.375e-05
deg
t
p
2457881.946662032602
(2017-May-08.44666203)
0.00044927
TDB
period
2029.71318925983
5.56
0.00010723
2.936e-07
d
yr
n
.1773649606776611
9.3702e-09
deg/d
Q
3.654903081596874
1.2873e-07
au
Orbit Determination Parameters
# obs. used (total)
171
data-arc span
6809 days (18.64 yr)
first obs. used
2000-06-04
last obs. used
2019-01-25
planetary ephem.
DE431
SB-pert. ephem.
SB431-N16
condition code
0
norm. resid. RMS
.52606
source
ORB
producer
Otto Matic
solution date
2019-Jul-14 11:34:42
Additional Information
Earth MOID
= 1.61298 au
Jupiter MOID
= 1.46248 au
T_jup
= 3.128
[ show covariance matrix ]
[
Ephemeris
|
Orbit Diagram
|
Orbital Elements
|
Mission Design
|
Physical Parameters
|
Discovery Circumstances
|
Close-Approach Data
]
Physical Parameter Table
Parameter
Symbol
Value
Units
Sigma
Reference
Notes
absolute magnitude
H
15.1
n/a
E2013V08
379814 (2011 KT11)
Discovered 2011-May-05 by Siding Spring Survey at Siding Spring
Reference:
Last Updated:
2013-11-20
[ show close-approach data ]
[
Ephemeris
|
Orbit Diagram
|
Orbital Elements
|
Mission Design
|
Physical Parameters
|
Discovery Circumstances
|
Close-Approach Data
]
2019-Dec-07 14:30 UT
(server date/time)
Site Manager:
Ryan S. Park
Webmaster
:
Alan B. Chamberlin